Hourly Data Report for October 05, 2017

All times are specified in Local Standard Time (LST). Add 1 hour to adjust for Daylight Saving Time where and when it is observed.

EAR FALLS (AUT)
ONTARIO

50°37'50.000" N
93°13'17.000" W
362.60 m
6012199
71295
XEA

Download Data

Hourly Data (October 2017)
Hourly Data Report for October 5, 2017
Temp Definition
°C
Dew Point Temp Definition
°C
Rel Hum Definition
%
Wind Dir Definition
10's deg

Wind Spd Definition
km/h
Visibility Definition
km
Stn Press Definition
kPa
Hmdx Definition


Wind Chill Definition


Weather Definition


TIME
00:00 6.3 3.9 85 20 4   97.30     LegendNANA
01:00 5.5 3.6 88 21 2   97.31     LegendNANA
02:00 4.2 3.0 92 21 3   97.31     LegendNANA
03:00 4.1 3.1 93 19 4   97.33     LegendNANA
04:00 4.7 3.7 93 26 5   97.34     LegendNANA
05:00 4.3 3.5 94 22 3   97.37     LegendNANA
06:00 4.0 3.3 96 24 3   97.38     LegendNANA
07:00 4.0 3.5 96 28 6   97.43     LegendNANA
08:00 6.2 5.3 94 34 8   97.48     LegendNANA
09:00 6.9 1.8 70 36 8   97.52     LegendNANA
10:00 7.6 0.5 61 33 13   97.51     LegendNANA
11:00 7.3 0.6 62 31 18   97.50     LegendNANA
12:00 8.7 -0.3 53 32 14   97.48     LegendNANA
13:00 9.9 0.4 52 28 15   97.44     LegendNANA
14:00 9.1 -0.6 50 31 17   97.42     LegendNANA
15:00 9.1 0.0 53 27 14   97.41     LegendNANA
16:00 9.4 0.2 53 28 11   97.39     LegendNANA
17:00 8.9 -0.1 53 28 11   97.36     LegendNANA
18:00 6.9 1.1 66 27 4   97.35     LegendNANA
19:00 5.3 1.2 75 24 3   97.35     LegendNANA
20:00 3.3 1.2 86 20 1   97.36     LegendNANA
21:00 2.1 1.0 92 25 3   97.34     LegendNANA
22:00 2.2 1.4 95 18 2   97.34     LegendNANA
23:00 2.0 1.4 96 20 3   97.31     LegendNANA

Notes on Data Quality.

Legend

  • E = Estimated
  • M = Missing
  • NA = Not Available
  • ‡ = Partner data that is not subject to review by the National Climate Archives
Date modified: